Regional Weather Roundup
Issued by NWS Newport/Morehead, NC

Current Version | Previous Version | Graphics & Text | Print | Product List | Glossary On
Versions: 1 2 3 4 5 6 7 8 9 10 11 12 13 14 15 16 17 18 19 20 21 22 23 24 25 26 27 28 29 30 31 32 33 34 35 36 37 38 39 40 41 42 43 44 45 46 47 48 49 50
000 ASUS42 KMHX 240713 RWRMHX WEATHER ROUNDUP FOR EASTERN NORTH CAROLINA NATIONAL WEATHER SERVICE NEWPORT/MOREHEAD CITY NC 300 AM EDT MON JUL 24 2017 NOTE: "FAIR" INDICATES FEW OR NO CLOUDS BELOW 12,000 FEET WITH NO SIGNIFICANT WEATHER AND/OR OBSTRUCTIONS TO VISIBILITY NCZ015>017-031-032-045>047-102-103-240800- NORTH COAST CITY SKY/WX TMP DP RH WIND PRES REMARKS EDENTON CLOUDY 75 71 88 W8 29.85R ELIZABETH CITY CLOUDY 73 72 96 W12 29.83R KITTY HAWK SUNNY 77 69 75 W5 29.79S MANTEO PTCLDY 78 71 77 SW21 29.80S $$ NCZ045>047-081-094-103-104-240800- CENTRAL COAST CITY SKY/WX TMP DP RH WIND PRES REMARKS FRISCO CLOUDY 78 72 81 SW10 29.86F $$ NCZ095-097-098-100-101-240800- SOUTHERN COAST CITY SKY/WX TMP DP RH WIND PRES REMARKS BEAUFORT MOCLDY 81 78 91 SW15G24 29.88S CEDAR ISLAND NOT AVBL JACKSONVILLE PTCLDY 79 77 94 SW7 29.85F PINEY ISLAND MOSUNNY N/A N/A N/A SW16G23 29.86F WILMINGTON PTCLDY 80 76 87 S12G24 29.87F $$ NCZ011>013-027>030-043-044-078>080-089-090>093-098-240800- COASTAL PLAIN CITY SKY/WX TMP DP RH WIND PRES REMARKS AHOSKIE N/A 69 69 99 CALM 29.85S CLINTON CLEAR 72 72 100 CALM 29.88S ELIZABETHTOWN NOT AVBL GOLDSBORO CLEAR 75 75 100 CALM 29.84F FOG GREENVILLE CLOUDY 72 72 100 CALM 29.88S HAVELOCK CLOUDY 80 75 84 S14G22 29.87F KENANSVILLE CLEAR 72 72 100 SW5 29.87S FOG KINSTON MOCLDY 76 72 88 W3 29.87R NEW BERN CLOUDY 78 77 96 SW8 29.86F RICHLANDS MOCLDY 77 76 96 SW7 29.87F ROCKY MOUNT CLEAR 72 72 100 S3 29.86S WASHINGTON CLOUDY 73 71 92 SW3 29.85S WHITEVILLE PTCLDY 75 73 95 CALM 29.88R $$ AMZ130-135-150-152-154-156-158-170-250-252-270-ANZ085-086-088-633-658-670-240800- MARINE OBSERVATIONS STATION/POSITION TIME TEMP WIND PRES WAVE SWELL AIR SEA DIR/SP/G HT/PER HT/PER (UTC) (F) (DEG/KT/KT) (MB) (FT/S) (FT/S) CHESAPEAKE LIGHT NOT AVBL 64 E VA BEACH 0650 79 79 250/ 17/ 21 1009.3 4/ 7 2/ 7 DUCK 0648 79 61 250/ 13/ 15 1008.9 2 E DUCK 0630 64 N/A 2/ 9 OREGON INLET 0648 190/ 22/ 25 1009.3 13E OREGON INLT 0648 74 N/A 4/ 7 2/10 HATTERAS CG 0648 77 78 200/ 6/ 12 1010.9 DIAMOND BUOY 0650 82 84 230/ 16/ 19 1011.2 7/ 7 CAPE LOOKOUT 0700 81 220/ 14/ 18 1011.4 BEAUFORT LAB 0648 81 80 220/ 8/ 14 1011.0 30 SE NEW RVR IN 0608 81 82 230/ 19/ 25 1012.2 30 SE NEW RVR IN 0643 82 N/A 8/ 7 2/11 27 SE WRIGHTSVLE 0608 82 83 210/ 19/ 25 1011.8 5 SE WRIGHTSVLE 0608 81 80 220/ 14/ 23 1011.9 225 S CAPE HAT 0650 83 83 200/ 16/ 19 1016.0 5/ 6 2/ 9 41 SE CHARLESTON 0650 82 83 230/ 21/ 25 1012.6 5/ 6 2/10 $$

USA.gov is the U.S. government's official web portal to all federal, state and local government web resources and services.